Location: Azul
(36.7830°S, 59.8500°W)
Time: 09:00:34
(UTC-03:00)

DIWATA 2B (PO-101) - Visible Passes

Search period start: 17 September 2024 00:00
Search period end: 27 September 2024 00:00
Orbit: 572 x 586 km, 98.1° (Epoch: 17 September)

Date Brightness Start Highest point End Pass type
(mag) Time Alt. Az. Time Alt. Az. Time Alt. Az.
17 Sep ? 04:49:44 10° SE 04:52:57 21° E 04:56:07 10° NE visible
17 Sep ? 06:24:36 10° SSW 06:28:10 27° WSW 06:31:41 10° NW visible
18 Sep ? 04:54:15 10° SE 04:57:39 24° E 05:01:00 10° NNE visible
19 Sep ? 04:58:46 10° SE 05:02:19 26° E 05:05:50 10° NNE visible
20 Sep ? 05:03:17 10° SE 05:06:59 30° E 05:10:38 10° NNE visible
21 Sep ? 05:07:48 10° SSE 05:11:38 33° E 05:15:23 10° NNE visible
22 Sep ? 05:12:19 10° SSE 05:16:14 38° E 05:20:05 10° NNE visible
23 Sep ? 05:16:49 10° SSE 05:20:50 43° E 05:24:46 10° N visible
24 Sep ? 05:21:20 10° SSE 05:25:25 49° E 05:29:24 10° N visible
25 Sep ? 05:25:50 10° SSE 05:29:58 55° E 05:34:01 10° N visible
26 Sep ? 05:30:20 10° SSE 05:34:30 63° ENE 05:38:35 10° N visible
